[[{"header":{"parameterUnit":"m.s-1","parameterCategory":1,"la1":30.2991,"la2":30.254,"lo1":-89.0895,"lo2":-89.0444,"dy":0.0017,"dx":0.0017,"nx":28,"ny":28,"refTime":"2023-11-22T09:00:00:Z","depth":0,"parameterNumber":2,"parameterNumberName":"U-component_of_WINDS"},"data":[0,0,0,0,0,0,0,0,0,0,0,0,0,0,0,0,0,0,0,0,0,0,0,0,0,0,0,0,0,0,0,0,0,0,0,0,0,0,0,0,0,0,0,0,0,0,0,0,0,0,0,0,0,0,0,0,0,0,2.2169,2.217,0,2.2254,2.2255,2.2255,2.2258,2.2257,2.2256,2.2255,2.2341,2.2345,2.2348,0,0,0,0,0,0,0,0,0,0,0,0,0,2.2011,2.2014,2.2169,2.217,2.2171,2.2253,2.2255,2.2256,2.2258,2.2257,2.2255,2.2254,2.234,2.2344,2.2348,0,0,0,0,0,0,0,0,0,0,0,0,0,2.2086,2.2015,2.2169,2.2182,2.2184,2.2253,2.2255,2.2256,2.2258,2.2257,2.2255,2.2254,2.2339,2.2344,2.2349,2.241,0,0,2.2364,2.2366,0,0,0,0,0,0,0,0,2.2082,2.2092,2.2179,2.2181,2.2184,2.2244,2.2231,2.2308,2.2259,2.223,2.2255,2.2253,2.231,2.2317,2.2337,2.2414,2.2418,2.2364,2.2367,2.2369,2.2371,0,0,0,0,0,0,0,2.2077,2.2088,2.2202,2.218,2.2183,2.2185,2.2193,2.2245,2.2278,2.2233,2.2233,2.2243,2.2311,2.2332,2.2339,2.2419,2.2364,2.2368,2.2371,2.2373,2.2554,2.2555,0,0,0,0,0,0,2.2069,2.2084,2.22,2.2205,2.2128,2.2189,2.2199,2.2226,2.2277,2.2284,2.2244,2.2243,2.2324,2.2333,2.2342,2.2418,2.2369,2.2374,2.2377,2.2552,2.2554,2.2556,0,0,0,0,0,0,2.2065,2.2079,2.2196,2.2145,2.216,2.2193,2.2224,2.2228,2.2249,2.2286,2.2292,2.2259,2.2323,2.2335,2.2394,2.2421,2.2376,2.238,2.255,2.2552,2.2555,2.2571,0,0,0,0,0,0,2.2061,2.2078,2.2101,2.2145,2.2163,2.2246,2.2225,2.2231,2.2258,2.2257,2.2302,2.2308,2.2323,2.2386,2.2398,2.2427,2.2384,2.2547,2.2551,2.2554,2.2568,2.2574,2.2579,0,0,0,0,0,2.2055,2.2102,2.2102,2.2116,2.2192,2.2248,2.2258,2.2274,2.226,2.2284,2.2308,2.2306,2.2416,2.2392,2.2406,2.2436,2.2546,2.255,2.2554,2.2565,2.2573,2.2579,0,0,0,0,0,0,2.2059,2.2108,2.2109,2.2171,2.2205,2.2248,2.2278,2.2281,2.232,2.2318,2.2337,2.2347,2.2406,2.2427,2.2399,2.25,2.2479,2.2486,2.2483,2.249,2.2496,2.2489,2.2388,0,0,0,0,0,2.2067,2.2108,2.2149,2.2199,2.2217,2.2245,2.227,2.228,2.2316,2.2331,2.2359,2.2395,2.2438,2.2465,2.2506,2.2571,2.2582,2.2599,2.2605,2.2609,2.2615,2.2652,2.2661,2.257,2.257,2.2569,0,0,2.2084,2.2116,2.214,2.2201,2.2229,2.2272,2.2257,2.2302,2.2334,2.2338,2.2395,2.2417,2.2459,2.2521,2.255,2.2541,2.2643,2.2614,2.2617,2.2621,2.2658,2.2666,2.2674,2.2572,2.2572,2.2571,0,0,2.2137,2.2165,2.2211,2.224,2.2283,2.2301,2.2313,2.2356,2.2371,2.2429,2.2433,2.2472,2.2544,2.2574,2.2599,2.2666,2.2667,2.2679,2.2707,2.2743,2.2751,2.2757,2.2782,2.2791,2.2685,2.2685,2.2685,0,2.2153,2.2217,2.2234,2.2281,2.2308,2.2313,2.2361,2.2388,2.2442,2.2461,2.245,2.2543,2.2571,2.2641,2.2658,2.2678,2.2692,2.2674,2.2748,2.2755,2.2761,2.2785,2.2794,2.2686,2.2686,2.2686,2.2686,0,2.2235,2.228,2.2312,2.2365,2.2396,2.2442,2.2467,2.2497,2.2505,2.2525,2.2585,2.2619,2.2668,2.2686,2.2694,2.2758,2.2751,2.2744,2.2724,2.2771,2.2794,2.2803,2.2688,2.2688,2.2687,2.2687,0,0,2.2291,2.2355,2.2366,2.2391,2.244,2.2475,2.2522,2.2571,2.2596,2.2634,2.2675,2.2738,2.2732,2.276,2.2772,2.2804,2.2856,2.2793,2.2794,2.2804,2.2931,2.2936,2.2946,2.2857,2.2859,2.2861,2.2928,0,2.235,2.2434,2.2452,2.2525,2.2568,2.2575,2.2617,2.2652,2.2672,2.2712,2.2735,2.2779,2.2768,2.2785,2.2817,2.2843,2.2882,2.2838,2.2896,2.2898,2.2886,2.2958,2.2963,2.3025,2.2937,2.2938,2.2939,0,2.2429,2.247,2.2547,2.2592,2.261,2.2647,2.2694,2.2732,2.2772,2.2785,2.2818,2.2827,2.2878,2.2856,2.2927,2.2897,2.2922,2.2938,2.2941,2.2947,2.2921,2.2967,2.3045,2.3054,2.2953,2.2952,2.2951,0,2.2463,2.2537,2.2594,2.2615,2.2668,2.2694,2.2718,2.2757,2.2786,2.2827,2.2846,2.2893,2.2918,2.2955,2.2976,2.2958,2.3046,2.3026,2.3059,2.3059,2.3077,2.3076,2.3161,2.3093,2.3093,2.3093,2.3093,0,2.2527,2.2574,2.261,2.2644,2.2698,2.2719,2.2772,2.2796,2.2831,2.2871,2.288,2.2918,2.2944,2.2986,2.3003,2.306,2.3072,2.3084,2.3089,2.3084,2.3082,2.31,2.3097,2.3095,2.3095,2.3094,2.3094,0,2.2574,2.2599,2.2662,2.2708,2.2721,2.2759,2.2799,2.2833,2.2855,2.2906,2.2919,2.2953,2.3003,2.3028,2.309,2.3102,2.3167,2.3168,2.3153,2.3155,2.3187,2.3184,2.3287,2.3302,2.3224,2.3224,2.3225,0,2.2613,2.2649,2.27,2.2728,2.2752,2.2797,2.2826,2.2849,2.288,2.293,2.2959,2.3009,2.3051,2.313,2.3161,2.3209,2.3212,2.3245,2.3219,2.3214,2.3213,2.3211,2.3215,2.3249,2.325,2.325,2.3251,0,2.2679,2.2691,2.2733,2.2781,2.2816,2.2854,2.2892,2.2915,2.2944,2.2978,2.3029,2.3062,2.3126,2.3176,2.3227,2.3252,2.3257,2.3259,2.327,2.3265,2.3255,2.3262,2.3166,2.3256,2.3256,2.3255,2.3255,2.3255,2.2724,2.2758,2.2799,2.2847,2.2878,2.2914,2.2949,2.2976,2.3019,2.3073,2.3084,2.3138,2.318,2.3249,2.3276,2.332,2.3313,2.3327,2.3331,2.3335,2.3337,2.3248,2.3329,2.3329,2.3329,2.3328,2.3328,0,2.2792,2.2819,2.2863,2.2916,2.2954,2.2956,2.2998,2.303,2.3078,2.3116,2.3158,2.3217,2.3267,2.3302,2.3353,2.3381,2.3385,2.3394,2.3392,2.3398,2.334,2.3326,2.339,2.339,2.339,2.339,2.339,2.339,2.2831,2.2889,2.2906,2.2979,2.3007,2.306,2.3085,2.3119,2.315,2.3216,2.3257,2.328,2.3318,2.3372,2.3418,2.3427,2.3446,2.3455,2.3464,2.3409,2.3402,2.3396,2.3383,2.3459,2.3459,2.352,2.352,2.3521]},{"header":{"parameterUnit":"m.s-1","parameterCategory":1,"la1":30.2991,"la2":30.254,"lo1":-89.0895,"lo2":-89.0444,"dy":0.0017,"dx":0.0017,"nx":28,"ny":28,"refTime":"2023-11-22T09:00:00:Z","depth":0,"parameterNumber":3,"parameterNumberName":"V-component_of_WINDS"},"data":[0,0,0,0,0,0,0,0,0,0,0,0,0,0,0,0,0,0,0,0,0,0,0,0,0,0,0,0,0,0,0,0,0,0,0,0,0,0,0,0,0,0,0,0,0,0,0,0,0,0,0,0,0,0,0,0,0,0,-6.0668,-6.0669,0,-6.0764,-6.0765,-6.0766,-6.0734,-6.0732,-6.073,-6.0728,-6.0821,-6.0825,-6.0829,0,0,0,0,0,0,0,0,0,0,0,0,0,-6.0452,-6.0456,-6.0668,-6.0669,-6.0671,-6.0764,-6.0765,-6.0767,-6.0735,-6.0732,-6.073,-6.0727,-6.0819,-6.0824,-6.083,0,0,0,0,0,0,0,0,0,0,0,0,0,-6.0547,-6.0457,-6.0668,-6.0666,-6.0667,-6.0764,-6.0766,-6.0767,-6.0735,-6.0732,-6.0729,-6.0726,-6.0818,-6.0824,-6.083,-6.0933,0,0,-6.0851,-6.0853,0,0,0,0,0,0,0,0,-6.0541,-6.0555,-6.0665,-6.0666,-6.0667,-6.0734,-6.0723,-6.0823,-6.0736,-6.0709,-6.0728,-6.0725,-6.0794,-6.0802,-6.0827,-6.0938,-6.0942,-6.0851,-6.0855,-6.0858,-6.086,0,0,0,0,0,0,0,-6.0535,-6.055,-6.0706,-6.0667,-6.0668,-6.0659,-6.0669,-6.0742,-6.0768,-6.0711,-6.0709,-6.0721,-6.0794,-6.0821,-6.0829,-6.0943,-6.0851,-6.0857,-6.0861,-6.0863,-6.1144,-6.1147,0,0,0,0,0,0,-6.0528,-6.0545,-6.0703,-6.0709,-6.0596,-6.0665,-6.0676,-6.0716,-6.0767,-6.0772,-6.0724,-6.0719,-6.0811,-6.0821,-6.0832,-6.0957,-6.0858,-6.0864,-6.0868,-6.114,-6.1145,-6.1148,0,0,0,0,0,0,-6.0524,-6.0543,-6.0699,-6.0627,-6.0646,-6.0672,-6.0717,-6.0719,-6.0746,-6.0777,-6.078,-6.0747,-6.0809,-6.0823,-6.0909,-6.096,-6.0867,-6.0873,-6.1136,-6.1142,-6.1147,-6.1207,0,0,0,0,0,0,-6.0518,-6.0541,-6.0582,-6.0628,-6.065,-6.0776,-6.072,-6.0724,-6.0758,-6.0754,-6.0799,-6.0803,-6.0808,-6.09,-6.0916,-6.0967,-6.0878,-6.1132,-6.1139,-6.1145,-6.12,-6.1214,-6.1225,0,0,0,0,0,-6.051,-6.0593,-6.0584,-6.0603,-6.0701,-6.0779,-6.0791,-6.0796,-6.0763,-6.0803,-6.0823,-6.0802,-6.0952,-6.0909,-6.0927,-6.0981,-6.1129,-6.1137,-6.1144,-6.1195,-6.1211,-6.1224,0,0,0,0,0,0,-6.0549,-6.0599,-6.0589,-6.069,-6.0731,-6.0773,-6.0824,-6.0813,-6.0862,-6.0855,-6.0858,-6.0868,-6.0957,-6.0977,-6.0928,-6.1083,-6.1035,-6.1047,-6.1067,-6.1083,-6.1095,-6.1088,-6.0884,0,0,0,0,0,-6.057,-6.0631,-6.067,-6.0755,-6.0777,-6.0797,-6.0831,-6.0832,-6.0873,-6.089,-6.0916,-6.0955,-6.1011,-6.1048,-6.1101,-6.1203,-6.1213,-6.1249,-6.1261,-6.1271,-6.1281,-6.1338,-6.1355,-6.1174,-6.1174,-6.1174,0,0,-6.0613,-6.0648,-6.0685,-6.0764,-6.0796,-6.0858,-6.0812,-6.0879,-6.0924,-6.0899,-6.0983,-6.1004,-6.1048,-6.1143,-6.1186,-6.1163,-6.1334,-6.1281,-6.1289,-6.1294,-6.1348,-6.1365,-6.138,-6.118,-6.1179,-6.1178,0,0,-6.0723,-6.0755,-6.083,-6.0864,-6.0914,-6.0927,-6.0945,-6.0991,-6.1004,-6.1089,-6.1072,-6.1125,-6.1221,-6.1254,-6.1283,-6.1408,-6.1391,-6.1425,-6.1488,-6.1544,-6.1558,-6.157,-6.1615,-6.1632,-6.1435,-6.1435,-6.1435,0,-6.0769,-6.0864,-6.087,-6.094,-6.0975,-6.0958,-6.1033,-6.1065,-6.1128,-6.1152,-6.1126,-6.1248,-6.1276,-6.1379,-6.141,-6.1434,-6.1454,-6.142,-6.1556,-6.1568,-6.158,-6.1623,-6.164,-6.1439,-6.1439,-6.1438,-6.1438,0,-6.0918,-6.0984,-6.1039,-6.1104,-6.1145,-6.1217,-6.1233,-6.1274,-6.1271,-6.1287,-6.1374,-6.1408,-6.1469,-6.1493,-6.149,-6.1596,-6.158,-6.1555,-6.1506,-6.1601,-6.1642,-6.1658,-6.1445,-6.1443,-6.1442,-6.1441,0,0,-6.1054,-6.1124,-6.1144,-6.1174,-6.1229,-6.1279,-6.135,-6.1412,-6.1447,-6.1492,-6.1551,-6.1634,-6.1612,-6.1645,-6.1645,-6.1694,-6.1792,-6.1662,-6.1663,-6.1686,-6.1912,-6.1931,-6.195,-6.1781,-6.1784,-6.1787,-6.1908,0,-6.1169,-6.1298,-6.1306,-6.1421,-6.1482,-6.1468,-6.153,-6.1569,-6.1587,-6.164,-6.1657,-6.1717,-6.1682,-6.1702,-6.175,-6.177,-6.1837,-6.1761,-6.1835,-6.1838,-6.1825,-6.1971,-6.1992,-6.2105,-6.1924,-6.1927,-6.1929,0,-6.132,-6.1373,-6.1495,-6.1543,-6.1569,-6.1625,-6.1683,-6.1734,-6.1779,-6.1788,-6.1827,-6.1821,-6.1893,-6.1842,-6.1941,-6.1889,-6.192,-6.1935,-6.1939,-6.1946,-6.1889,-6.1983,-6.2141,-6.2158,-6.1953,-6.1951,-6.195,0,-6.1408,-6.151,-6.1596,-6.1622,-6.168,-6.172,-6.1745,-6.1787,-6.1824,-6.1874,-6.1898,-6.1955,-6.1986,-6.2029,-6.2039,-6.2001,-6.2138,-6.2088,-6.2147,-6.2147,-6.2176,-6.2175,-6.2342,-6.2196,-6.2196,-6.2195,-6.2195,0,-6.1536,-6.1612,-6.1637,-6.169,-6.1774,-6.1783,-6.1865,-6.1888,-6.1926,-6.1982,-6.1972,-6.2025,-6.2034,-6.2088,-6.2096,-6.2177,-6.2191,-6.22,-6.2201,-6.2201,-6.22,-6.2221,-6.2214,-6.22,-6.2199,-6.2198,-6.2197,0,-6.1649,-6.1669,-6.1763,-6.1811,-6.1825,-6.1884,-6.1925,-6.1975,-6.1992,-6.2064,-6.2081,-6.2106,-6.217,-6.2184,-6.2259,-6.2264,-6.2361,-6.2354,-6.2347,-6.2347,-6.2405,-6.24,-6.2593,-6.2619,-6.2455,-6.2457,-6.2458,0,-6.1729,-6.1787,-6.1843,-6.1881,-6.191,-6.1971,-6.201,-6.2021,-6.2061,-6.2117,-6.2161,-6.2224,-6.2276,-6.2378,-6.2402,-6.246,-6.2454,-6.2518,-6.2463,-6.2462,-6.2456,-6.2453,-6.2459,-6.2528,-6.253,-6.2532,-6.2533,0,-6.187,-6.1878,-6.1935,-6.1997,-6.2044,-6.2092,-6.2138,-6.217,-6.2187,-6.2232,-6.2299,-6.2339,-6.2418,-6.2481,-6.2539,-6.2563,-6.2551,-6.255,-6.2567,-6.2568,-6.2562,-6.2567,-6.2377,-6.2546,-6.2544,-6.2543,-6.2543,-6.2542,-6.1969,-6.2021,-6.2069,-6.2133,-6.217,-6.2214,-6.2265,-6.2289,-6.2346,-6.2412,-6.2414,-6.2487,-6.253,-6.2608,-6.2636,-6.2692,-6.2672,-6.2696,-6.2702,-6.2708,-6.2714,-6.2553,-6.2702,-6.2702,-6.2702,-6.2701,-6.2701,0,-6.211,-6.2141,-6.22,-6.2267,-6.2318,-6.2305,-6.2355,-6.2398,-6.2463,-6.2506,-6.2558,-6.2635,-6.2697,-6.2726,-6.2787,-6.2826,-6.2822,-6.2842,-6.2839,-6.2845,-6.2728,-6.2708,-6.2844,-6.2844,-6.2844,-6.2844,-6.2844,-6.2844,-6.2189,-6.2277,-6.2291,-6.2396,-6.2425,-6.2499,-6.2529,-6.2569,-6.2604,-6.2692,-6.2744,-6.2764,-6.2801,-6.2865,-6.292,-6.2927,-6.295,-6.2973,-6.2977,-6.2867,-6.2853,-6.2839,-6.282,-6.2978,-6.2978,-6.3089,-6.309,-6.3091]}]]